115  
ASUS41 KLWX 240011  
RWRLWX  
 
REGIONAL WEATHER ROUNDUP  
NATIONAL WEATHER SERVICE BALTIMORE MD/WASHINGTON DC  
800 PM EDT MON APR 23 2018  
 
NOTE: "FAIR" INDICATES FEW OR NO CLOUDS BELOW 12,000 FEET  
WITH NO SIGNIFICANT WEATHER AND/OR S TO VISIBILITY
.  
TC=TEMPERATURE CELSIUS  
 
* =NON NWS SITE. STATION DOES NOT REPORT PRECIPITATION (E.G. RAIN,  
SNOW, ETC.), THUNDER, OR FOG.
 
 
DCZ001-MDZ009-015-VAZ040>042-051-053>054-240100-  
WASHINGTON METRO  
 
CITY SKY/WX TMP DP RH WIND PRES REMARKS
 
WASHINGTON NAT MOCLDY 61 34 36 SE13 30.38R  
DULLES MOCLDY 60 39 45 SE15G21 30.35R  
QUANTICO MOCLDY 60 40 47 SE13 30.37S  
COLLEGE PARK* FAIR 60 25 25 SE9 30.38R  
LEESBURG* FAIR 63 45 51 S13G18 30.35S  
MANASSAS* FAIR 60 38 43 SE15 30.35S  
GAITHERSBURG* FAIR 60 40 47 SE9 30.37R  
 

 
 
MDZ006>007-011-014-240100-  
BALTIMORE METRO  
 
CITY SKY/WX TMP DP RH WIND PRES REMARKS
 
BWI AIRPORT MOCLDY 61 35 37 S6 30.37R  
MD SCIENCE CTR N/A 63 36 36 MISG 30.38R  
ANNAPOLIS FAIR 61 32 33 S10 30.39R  
FORT MEADE* FAIR 59 32 36 SE9 30.40R  
 

 
 
MDZ012-015-019>023-240100-  
MARYLAND EASTERN SHORE  
 
CITY SKY/WX TMP DP RH WIND PRES REMARKS
 
OCEAN CITY FAIR 50 44 80 CALM 30.43R  
SALISBURY FAIR 53 33 46 E5 30.41S  
BAY BRIDGE AP* FAIR 57 41 54 S7 30.39S  
CAMBRIDGE* CLEAR 57 27 30 SE8 30.40S  
EASTON* MOCLDY 59 23 25 SE9 30.43S  
 

 
 
MDZ017>025-240100-  
SOUTHERN MARYLAND  
 
CITY SKY/WX TMP DP RH WIND PRES REMARKS
 
PATUXENT RIVER MOCLDY 57 44 62 SE7 30.39S  
ST INIGOES FAIR 57 40 52 E9 30.37F  
LEONARDTOWN* FAIR 55 32 41 E6 30.40F  
 

 
 
MDZ003>005-240100-  
NORTH CENTRAL MARYLAND  
 
CITY SKY/WX TMP DP RH WIND PRES REMARKS
 
FREDERICK* PTCLDY 63 36 36 SE9 30.37R  
HAGERSTOWN APT FAIR 64 42 44 SE12 30.32R  
WESTMINSTER* FAIR N/A N/A N/A S9 30.36R  
 

 
 
MDZ501>502-240100-  
WESTERN MARYLAND  
 
CITY SKY/WX TMP DP RH WIND PRES REMARKS
 
OAKLAND* NOT AVBL  
CUMBERLAND* FAIR 63 43 48 SE12G20 30.31S  
 

 
 
VAZ025>031-240100-  
SHENANDOAH VALLEY  
 
CITY SKY/WX TMP DP RH WIND PRES REMARKS
 
WINCHESTER* FAIR 59 41 51 SE12 30.33S  
FRONT ROYAL* MOCLDY 61 43 51 SE7 30.30S  
LURAY* MOCLDY 61 41 48 SE8 30.30R  
NEW MARKET* MOCLDY 61 42 49 SE7 30.28R  
STAUNTON* MOCLDY 60 44 55 SE7 30.31R  
WAYNESBORO* CLOUDY 59 45 58 SE13G22 30.29R  
 

 
 
WVZ021-048>050-054>055-240100-  
EASTERN WEST VIRGINIA PANHANDLE  
 
CITY SKY/WX TMP DP RH WIND PRES REMARKS
 
MARTINSBURG FAIR 62 42 47 SE12 30.31R  
PETERSBURG* MOCLDY 61 43 50 SE12 30.26S  
 

 
 
VAZ036>039-050-240100-  
CENTRAL FOOTHILLS  
 
CITY SKY/WX TMP DP RH WIND PRES REMARKS
 
CHARLOTTESVILL FAIR 64 42 44 E10 30.29R  
CULPEPER* FAIR 62 39 42 SE5 30.34R  
ORANGE* FAIR 61 39 44 SE8 30.32R  
GORDONSVILLE* FAIR 61 40 45 E9 30.32R  
WARRENTON* FAIR 60 37 41 E9 30.33S  
 

 
 
VAZ055>057-240100-  
NORTH AND CENTRAL PIEDMONT  
 
CITY SKY/WX TMP DP RH WIND PRES REMARKS
 
FREDERICKSBRG* FAIR 60 32 34 E10G20 30.35S  
STAFFORD* FAIR 59 35 40 SE6G17 30.38S  
 

 
 
NCZ024-NYZ072-PAZ021-071-VAZ022-071-240100-  
OTHER REGIONAL OBSERVATIONS  
 
CITY SKY/WX TMP DP RH WIND PRES REMARKS
 
NEW YORK CITY FAIR 54 34 46 S5 30.45S  
PHILADELPHIA MOCLDY 59 30 33 S8 30.40R  
PITTSBURGH CLOUDY 66 35 31 SE14 30.20R  
ROANOKE LGT RAIN 55 51 86 NE7 30.26F  
RICHMOND CLOUDY 59 37 44 E12 30.33F  
RALEIGH LGT RAIN 62 50 64 E13G21 30.21R  
 

 
 
ANZ530>537-240100-  
MARINE OBSERVATIONS  
 
STATION/POSITION TIME TEMP WIND PRES
 
AIR SEA DIR/SP/G  
(UTC) (F) (DEG/KT/KT) (MB)  
THOMAS PT LIGHT 0000 56 52 190/ 14/ 15 1029.9R  
BALT KEY BRIDGE 2348 170/ 15/ 16 1028.5R  
COVE POINT 2348 180/ 9/ 10 1029.8F  
LEWISETTA 2348 57 150/ 9/ 11 1028.5F  
SOLOMONS ISLAND 2348 54 120/ 8/ 10 1028.8S  
PINEY POINT 2348 140/ 10/ 10 N/A  
 

 
 
 
 
CLICK HERE TO GO TO PREVIOUS BULLETINS.

The Nexlab VA Page
The Nexlab MD Page
The Nexlab WV Page Main Text Page